Location: DaVinci Observatory
(43.1080°N, 78.6453°W)
Time: 03:54:43
(UTC-04:00)

OTV 5 (USA 277) - Pass Details

Date: 11 October 2017
Orbit: 404 x 417 km, 43.0° (Epoch: 07 September)

Event Time Altitude Azimuth Distance (km) Brightness Sun altitude
Rises 20:28:19 0° 251° (WSW) 2,350 ? -20.9°
Reaches altitude 10° 20:30:26 10° 248° (WSW) 1,488 ? -21.3°
Enters shadow 20:33:03 48° 224° (SW) 551 ? -21.8°
